Location: Larkspur
(54.4391°N, 113.7691°W)
Time: 14:35:14
(UTC+00:00)

METEOR M2 - Pass Details

Date: 09 December 2023
Orbit: 819 x 826 km, 98.4° (Epoch: 02 March)

Event Time Altitude Azimuth Distance (km) Brightness Sun altitude
Rises 01:32:37 0° 200° (SSW) 3,355 ? -19.1°
Reaches altitude 10° 01:35:21 10° 213° (SSW) 2,427 ? -19.5°
Maximum altitude 01:39:48 26° 269° (W) 1,582 ? -20.2°
Drops below altitude 10° 01:44:17 10° 325° (NW) 2,439 ? -20.8°
Sets 01:47:02 0° 338° (NNW) 3,376 ? -21.2°
